Date String (YYYY-MM-DD hh:mm:ss) UTC,Instrument flags,Ambient pressure (hPa),Sample flow (lpm),Bypass flow (lpm),Sample temperature (°C),Ambient temperature (°C),ASC tube jacket temperature (°C),LED temperature (°C),Box temperature (°C),Sample RH (%),Span deviation,Mass concentration (μg/m³),Mass concentration (μg/m³),Mass concentration (μg/m³)
DateTimeUTC,F1_M11,P_M11,Q1_M11,Q2_M11,T1_M11,T2_M11,T3_M11,T4_M11,T5_M11,U1_M11,ZSPAN_M11,X0_M11,X2_M11,X1_M11
2022-12-16 03:00:00,,0823.1,4.97,0.00,21.7,20.0,00.0,30.6,23.3,04.5,0000.0,0002.18,0000.98,0000.82
2022-12-16 03:01:00,,0823.1,5.04,0.00,21.6,19.9,00.0,30.6,23.3,04.6,0000.0,0002.12,0000.95,0000.80
2022-12-16 03:02:00,,0823.0,4.98,0.00,21.6,20.0,00.0,30.6,23.3,04.5,0000.0,0001.99,0000.91,0000.80
2022-12-16 03:03:00,,0823.1,4.99,0.00,21.7,20.9,00.0,30.5,23.5,04.5,0000.0,0001.88,0000.91,0000.81
2022-12-16 03:04:00,,0823.1,5.01,0.00,21.8,22.0,00.0,30.5,23.7,04.5,0000.0,0001.83,0000.93,0000.82
2022-12-16 03:05:00,,0823.0,5.01,0.00,21.9,22.3,00.0,30.6,23.9,04.4,0000.0,0001.92,0000.96,0000.83
2022-12-16 03:06:00,,0823.0,4.97,0.00,21.9,21.9,00.0,30.6,23.9,04.4,0000.0,0001.95,0000.97,0000.83
2022-12-16 03:07:00,,0823.0,5.05,0.00,21.9,21.4,00.0,30.7,23.8,04.4,0000.0,0001.93,0000.96,0000.83
2022-12-16 03:08:00,,0823.0,4.95,0.00,21.9,21.0,00.0,30.7,23.7,04.4,0000.0,0001.80,0000.96,0000.82
2022-12-16 03:09:00,,0823.1,5.05,0.00,21.9,20.7,00.0,30.7,23.6,04.4,0000.0,0001.37,0000.96,0000.82
2022-12-16 03:10:00,,0823.1,4.98,0.00,21.8,20.5,00.0,30.7,23.5,04.5,0000.0,0001.38,0000.96,0000.82
2022-12-16 03:11:00,,0823.1,4.97,0.00,21.8,20.4,00.0,30.7,23.5,04.5,0000.0,0001.38,0000.96,0000.82
2022-12-16 03:12:00,,0823.0,5.05,0.00,21.8,20.3,00.0,30.7,23.4,04.5,0000.0,0001.42,0000.98,0000.83
2022-12-16 03:13:00,,0823.1,4.98,0.00,21.7,20.2,00.0,30.7,23.4,04.6,0000.0,0001.50,0001.01,0000.84
2022-12-16 03:14:00,,0823.1,4.98,0.00,21.7,20.0,00.0,30.7,23.4,04.6,0000.0,0001.58,0001.04,0000.84
2022-12-16 03:15:00,,0823.1,5.03,0.00,21.7,20.0,00.0,30.6,23.3,04.5,0000.0,0001.54,0001.02,0000.83
2022-12-16 03:16:00,,0823.1,4.98,0.00,21.6,20.1,00.0,30.6,23.3,04.4,0000.0,0001.52,0001.02,0000.83
2022-12-16 03:17:00,,0823.1,4.99,0.00,21.7,21.1,00.0,30.6,23.6,04.4,0000.0,0001.46,0001.00,0000.81
2022-12-16 03:18:00,,0823.1,5.01,0.00,21.8,21.9,00.0,30.6,23.8,04.3,0000.0,0001.42,0000.97,0000.80
2022-12-16 03:19:00,,0823.1,5.00,0.00,21.9,21.7,00.0,30.6,23.9,04.3,0000.0,0001.37,0000.96,0000.80
2022-12-16 03:20:00,,0823.1,4.99,0.00,21.9,21.3,00.0,30.7,23.8,04.4,0000.0,0001.35,0000.96,0000.80
2022-12-16 03:21:00,,0823.0,4.99,0.00,21.9,20.9,00.0,30.7,23.7,04.4,0000.0,0001.34,0000.95,0000.81
2022-12-16 03:22:00,,0823.1,5.03,0.00,21.8,20.7,00.0,30.7,23.6,04.4,0000.0,0001.34,0000.95,0000.81
2022-12-16 03:23:00,,0823.1,4.98,0.00,21.8,20.5,00.0,30.7,23.5,04.4,0000.0,0001.33,0000.95,0000.81
2022-12-16 03:24:00,,0823.1,4.98,0.00,21.8,20.3,00.0,30.7,23.5,04.4,0000.0,0001.37,0000.93,0000.82
2022-12-16 03:25:00,,0823.0,5.02,0.00,21.7,20.1,00.0,30.7,23.4,04.4,0000.0,0001.40,0000.95,0000.82
2022-12-16 03:26:00,,0823.1,4.97,0.00,21.7,20.0,00.0,30.6,23.4,04.4,0000.0,0001.39,0000.95,0000.82
2022-12-16 03:27:00,,0823.1,5.05,0.00,21.7,19.9,00.0,30.6,23.3,04.4,0000.0,0001.36,0000.93,0000.82
2022-12-16 03:28:00,,0823.1,4.98,0.00,21.7,20.4,00.0,30.6,23.4,04.4,0000.0,0001.46,0000.96,0000.83
2022-12-16 03:29:00,,0823.2,5.00,0.00,21.8,21.4,00.0,30.5,23.6,04.4,0000.0,0001.53,0000.99,0000.84
2022-12-16 03:30:00,,0823.2,5.01,0.00,21.9,22.0,00.0,30.6,23.8,04.4,0000.0,0001.60,0001.01,0000.84
2022-12-16 03:31:00,,0823.2,5.00,0.00,21.9,21.6,00.0,30.6,23.8,04.3,0000.0,0001.66,0001.01,0000.84
2022-12-16 03:32:00,,0823.1,4.99,0.00,21.9,21.3,00.0,30.7,23.7,04.4,0000.0,0001.71,0001.02,0000.84
2022-12-16 03:33:00,,0823.2,4.99,0.00,21.9,21.0,00.0,30.7,23.7,04.4,0000.0,0001.71,0001.01,0000.83
2022-12-16 03:34:00,,0823.1,5.03,0.00,21.8,20.8,00.0,30.7,23.6,04.4,0000.0,0001.71,0001.01,0000.82
2022-12-16 03:35:00,,0823.1,4.98,0.00,21.8,20.6,00.0,30.7,23.6,04.4,0000.0,0001.62,0001.01,0000.81
2022-12-16 03:36:00,,0823.1,4.98,0.00,21.8,20.4,00.0,30.7,23.6,04.3,0000.0,0001.52,0000.97,0000.80
2022-12-16 03:37:00,,0823.2,5.03,0.00,21.8,20.3,00.0,30.7,23.5,04.3,0000.0,0001.52,0000.97,0000.80
2022-12-16 03:38:00,,0823.1,4.95,0.00,21.7,20.2,00.0,30.7,23.5,04.3,0000.0,0001.49,0000.96,0000.80
2022-12-16 03:39:00,,0823.1,5.04,0.00,21.7,20.2,00.0,30.7,23.4,04.4,0000.0,0001.43,0000.94,0000.79
2022-12-16 03:40:00,,0823.2,4.98,0.00,21.7,20.3,00.0,30.6,23.5,04.4,0000.0,0001.42,0000.93,0000.78
2022-12-16 03:41:00,,0823.2,4.99,0.00,21.8,21.3,00.0,30.6,23.7,04.4,0000.0,0001.38,0000.92,0000.77
2022-12-16 03:42:00,,0823.3,5.03,0.00,21.9,22.1,00.0,30.6,23.9,04.3,0000.0,0001.40,0000.95,0000.78
2022-12-16 03:43:00,,0823.2,4.97,0.00,22.0,21.9,00.0,30.7,23.9,04.3,0000.0,0001.48,0000.97,0000.78
2022-12-16 03:44:00,,0823.2,5.04,0.00,22.0,21.5,00.0,30.7,23.9,04.3,0000.0,0001.53,0001.00,0000.79
2022-12-16 03:45:00,,0823.2,4.95,0.00,22.0,21.2,00.0,30.7,23.8,04.3,0000.0,0001.59,0001.02,0000.80
2022-12-16 03:46:00,,0823.2,5.05,0.00,21.9,20.9,00.0,30.7,23.7,04.3,0000.0,0001.77,0001.06,0000.81
2022-12-16 03:47:00,,0823.2,4.95,0.00,21.9,20.6,00.0,30.7,23.7,04.3,0000.0,0002.03,0001.07,0000.81
2022-12-16 03:48:00,,0823.2,5.05,0.00,21.9,20.5,00.0,30.7,23.6,04.2,0000.0,0002.02,0001.07,0000.81
2022-12-16 03:49:00,,0823.2,4.95,0.00,21.9,20.3,00.0,30.7,23.6,04.1,0000.0,0002.01,0001.07,0000.82
2022-12-16 03:50:00,,0823.2,5.04,0.00,21.8,20.2,00.0,30.7,23.6,04.2,0000.0,0001.97,0001.05,0000.81
2022-12-16 03:51:00,,0823.1,4.97,0.00,21.8,20.2,00.0,30.7,23.5,04.3,0000.0,0002.02,0001.06,0000.82
2022-12-16 03:52:00,,0823.1,4.98,0.00,21.8,20.1,00.0,30.7,23.5,04.2,0000.0,0002.04,0001.08,0000.82
2022-12-16 03:53:00,,0823.1,5.05,0.00,21.8,20.4,00.0,30.7,23.5,04.1,0000.0,0002.03,0001.07,0000.81
2022-12-16 03:54:00,,0823.1,4.97,0.00,21.9,21.5,00.0,30.6,23.8,04.2,0000.0,0001.96,0001.07,0000.80
2022-12-16 03:55:00,,0823.2,5.01,0.00,22.0,22.1,00.0,30.6,24.0,04.2,0000.0,0001.89,0001.05,0000.80
2022-12-16 03:56:00,,0823.2,5.00,0.00,22.0,21.8,00.0,30.7,24.0,04.2,0000.0,0001.82,0001.02,0000.79
2022-12-16 03:57:00,,0823.2,4.99,0.00,22.0,21.4,00.0,30.7,23.9,04.1,0000.0,0001.69,0000.99,0000.78
2022-12-16 03:58:00,,0823.1,5.02,0.00,22.0,21.0,00.0,30.8,23.8,04.1,0000.0,0001.49,0000.99,0000.78
2022-12-16 03:59:00,,0823.1,4.97,0.00,22.0,20.8,00.0,30.8,23.7,04.1,0000.0,0001.46,0001.00,0000.78
